Location: ??????
(38.3184°N, 23.6932°E)
Time: 02:15:42
(UTC+00:00)

Cosmos 1000 Rocket - Pass Details

Date: 16 October 2021
Orbit: 954 x 991 km, 82.9° (Epoch: 04 December)

Event Time Altitude Azimuth Distance (km) Brightness Sun altitude
Rises 17:09:59 0° 352° (N) 3,643 7.6 -17.3°
Reaches altitude 10° 17:12:29 10° 352° (N) 2,696 6.9 -17.8°
Maximum altitude 17:18:39 85° 266° (W) 971 4.5 -19.0°
Drops below altitude 10° 17:24:51 10° 178° (S) 2,700 6.7 -20.2°
Sets 17:27:21 0° 177° (S) 3,648 7.4 -20.7°
